Meteo pe oră la Allahabad

Astăzi, 26 Ianuarie, Marţi

Timp Temperatura Precipitaţii Vânt Presiune Umiditate
00:00 +13°C° 0 mm 1 m/s 753 mmHg 69%
01:00 +13°C° 0 mm 1 m/s 753 mmHg 73%
02:00 +11°C° 0 mm 0 m/s 753 mmHg 76%
03:00 +11°C° 0 mm 0 m/s 753 mmHg 77%
04:00 +10°C° 0 mm 0 m/s 753 mmHg 78%
05:00 +11°C° 0 mm 1 m/s 753 mmHg 79%
06:00 +12°C° 0 mm 1 m/s 753 mmHg 75%
07:00 +13°C° 0 mm 1 m/s 754 mmHg 70%
08:00 +15°C° 0 mm 1 m/s 755 mmHg 65%
09:00 +18°C° 0 mm 1 m/s 754 mmHg 59%
10:00 +20°C° 0 mm 1 m/s 754 mmHg 52%
11:00 +23°C° 0 mm 1 m/s 754 mmHg 45%
12:00 +23°C° 0 mm 1 m/s 753 mmHg 42%
13:00 +24°C° 0 mm 2 m/s 752 mmHg 39%
14:00 +25°C° 0 mm 2 m/s 751 mmHg 36%
15:00 +24°C° 0 mm 2 m/s 751 mmHg 39%
16:00 +21°C° 0 mm 2 m/s 751 mmHg 41%
17:00 +20°C° 0 mm 2 m/s 752 mmHg 44%
18:00 +18°C° 0 mm 2 m/s 752 mmHg 44%
19:00 +17°C° 0 mm 2 m/s 752 mmHg 43%
20:00 +15°C° 0 mm 2 m/s 753 mmHg 42%
21:00 +15°C° 0 mm 2 m/s 753 mmHg 45%
22:00 +14°C° 0 mm 2 m/s 753 mmHg 47%
23:00 +13°C° 0 mm 2 m/s 753 mmHg 49%

Mâine, 27 Ianuarie, Miercuri

Timp Temperatura Precipitaţii Vânt Presiune Umiditate
00:00 +12°C° 0 mm 1 m/s 753 mmHg 52%
01:00 +11°C° 0 mm 1 m/s 753 mmHg 54%
02:00 +9°C° 0 mm 0 m/s 752 mmHg 57%
03:00 +10°C° 0 mm 1 m/s 752 mmHg 58%
04:00 +10°C° 0 mm 1 m/s 753 mmHg 59%
05:00 +10°C° 0 mm 1 m/s 753 mmHg 60%
06:00 +11°C° 0 mm 1 m/s 753 mmHg 57%
07:00 +12°C° 0 mm 1 m/s 754 mmHg 54%
08:00 +14°C° 0 mm 1 m/s 754 mmHg 51%
09:00 +16°C° 0 mm 1 m/s 754 mmHg 45%
10:00 +20°C° 0 mm 1 m/s 754 mmHg 39%
11:00 +22°C° 0 mm 1 m/s 754 mmHg 34%
12:00 +23°C° 0 mm 1 m/s 753 mmHg 31%
13:00 +24°C° 0 mm 2 m/s 752 mmHg 29%
14:00 +25°C° 0 mm 2 m/s 752 mmHg 26%
15:00 +23°C° 0 mm 2 m/s 751 mmHg 30%
16:00 +21°C° 0 mm 1 m/s 751 mmHg 35%
17:00 +20°C° 0 mm 1 m/s 751 mmHg 39%
18:00 +19°C° 0 mm 1 m/s 752 mmHg 41%
19:00 +16°C° 0 mm 1 m/s 752 mmHg 43%
20:00 +15°C° 0 mm 1 m/s 753 mmHg 45%
21:00 +14°C° 0 mm 1 m/s 753 mmHg 47%
22:00 +14°C° 0 mm 1 m/s 753 mmHg 49%
23:00 +13°C° 0 mm 1 m/s 753 mmHg 51%

Poimâine, 28 Ianuarie, Joi

Timp Temperatura Precipitaţii Vânt Presiune Umiditate
00:00 +12°C° 0 mm 1 m/s 753 mmHg 54%
01:00 +11°C° 0 mm 1 m/s 753 mmHg 57%
02:00 +11°C° 0 mm 1 m/s 752 mmHg 60%
03:00 +9°C° 0 mm 0 m/s 753 mmHg 61%
04:00 +9°C° 0 mm 0 m/s 753 mmHg 62%
05:00 +9°C° 0 mm 0 m/s 753 mmHg 63%
06:00 +11°C° 0 mm 0 m/s 753 mmHg 59%
07:00 +12°C° 0 mm 0 m/s 754 mmHg 54%
08:00 +15°C° 0 mm 1 m/s 754 mmHg 50%
09:00 +18°C° 0 mm 1 m/s 754 mmHg 44%
10:00 +21°C° 0 mm 1 m/s 754 mmHg 39%
11:00 +23°C° 0 mm 1 m/s 754 mmHg 34%
12:00 +24°C° 0 mm 1 m/s 753 mmHg 32%
13:00 +25°C° 0 mm 1 m/s 753 mmHg 30%
14:00 +26°C° 0 mm 1 m/s 752 mmHg 28%
15:00 +25°C° 0 mm 1 m/s 752 mmHg 32%
16:00 +23°C° 0 mm 1 m/s 751 mmHg 37%
17:00 +22°C° 0 mm 1 m/s 751 mmHg 41%
18:00 +20°C° 0 mm 2 m/s 752 mmHg 42%
19:00 +18°C° 0 mm 2 m/s 752 mmHg 44%
20:00 +17°C° 0 mm 3 m/s 753 mmHg 45%
21:00 +16°C° 0 mm 2 m/s 753 mmHg 48%
22:00 +16°C° 0 mm 2 m/s 753 mmHg 50%
23:00 +15°C° 0 mm 1 m/s 753 mmHg 52%

29 Ianuarie, Vineri

Timp Temperatura Precipitaţii Vânt Presiune Umiditate
00:00 +15°C° 0.1 mm 1 m/s 753 mmHg 53%
01:00 +15°C° 0.1 mm 1 m/s 753 mmHg 54%
02:00 +15°C° 0.1 mm 1 m/s 753 mmHg 55%
03:00 +14°C° 0 mm 1 m/s 753 mmHg 57%
04:00 +13°C° 0 mm 1 m/s 753 mmHg 59%
05:00 +12°C° 0 mm 1 m/s 753 mmHg 60%
06:00 +14°C° 0 mm 1 m/s 754 mmHg 57%
07:00 +15°C° 0 mm 1 m/s 754 mmHg 55%
08:00 +16°C° 0 mm 1 m/s 755 mmHg 52%
09:00 +19°C° 0 mm 1 m/s 755 mmHg 47%
10:00 +21°C° 0 mm 1 m/s 755 mmHg 41%
11:00 +24°C° 0 mm 2 m/s 754 mmHg 36%
12:00 +25°C° 0 mm 2 m/s 754 mmHg 33%
13:00 +26°C° 0 mm 2 m/s 753 mmHg 31%
14:00 +27°C° 0 mm 2 m/s 752 mmHg 29%
15:00 +25°C° 0 mm 2 m/s 752 mmHg 33%
16:00 +23°C° 0 mm 2 m/s 752 mmHg 38%
17:00 +21°C° 0 mm 2 m/s 751 mmHg 42%
18:00 +19°C° 0 mm 2 m/s 752 mmHg 43%
19:00 +18°C° 0 mm 3 m/s 753 mmHg 45%
20:00 +17°C° 0 mm 3 m/s 753 mmHg 46%
21:00 +16°C° 0 mm 3 m/s 753 mmHg 46%
22:00 +14°C° 0 mm 3 m/s 753 mmHg 45%
23:00 +13°C° 0 mm 3 m/s 753 mmHg 45%

30 Ianuarie, Sâmbătă

Timp Temperatura Precipitaţii Vânt Presiune Umiditate
00:00 +12°C° 0 mm 3 m/s 753 mmHg 48%
01:00 +11°C° 0 mm 3 m/s 753 mmHg 52%
02:00 +10°C° 0 mm 2 m/s 753 mmHg 55%
03:00 +10°C° 0 mm 2 m/s 753 mmHg 56%
04:00 +9°C° 0 mm 2 m/s 753 mmHg 57%
05:00 +9°C° 0 mm 2 m/s 753 mmHg 59%
06:00 +10°C° 0 mm 2 m/s 753 mmHg 55%
07:00 +12°C° 0 mm 2 m/s 754 mmHg 52%
08:00 +12°C° 0 mm 3 m/s 754 mmHg 48%
09:00 +16°C° 0 mm 3 m/s 754 mmHg 41%
10:00 +18°C° 0 mm 3 m/s 754 mmHg 34%
11:00 +21°C° 0 mm 3 m/s 754 mmHg 27%
12:00 +22°C° 0 mm 3 m/s 753 mmHg 25%
13:00 +24°C° 0 mm 3 m/s 753 mmHg 23%
14:00 +25°C° 0 mm 3 m/s 752 mmHg 20%
15:00 +22°C° 0 mm 3 m/s 752 mmHg 24%
16:00 +20°C° 0 mm 3 m/s 752 mmHg 28%
17:00 +18°C° 0 mm 2 m/s 752 mmHg 32%
18:00 +17°C° 0 mm 2 m/s 752 mmHg 33%
19:00 +16°C° 0 mm 2 m/s 753 mmHg 34%
20:00 +14°C° 0 mm 2 m/s 753 mmHg 34%
21:00 +13°C° 0 mm 2 m/s 754 mmHg 35%
22:00 +13°C° 0 mm 1 m/s 754 mmHg 36%
23:00 +12°C° 0 mm 1 m/s 754 mmHg 37%

31 Ianuarie, Duminică

Timp Temperatura Precipitaţii Vânt Presiune Umiditate
00:00 +11°C° 0 mm 1 m/s 754 mmHg 39%
01:00 +11°C° 0 mm 1 m/s 754 mmHg 40%
02:00 +10°C° 0 mm 1 m/s 753 mmHg 41%
03:00 +10°C° 0 mm 1 m/s 753 mmHg 42%
04:00 +9°C° 0 mm 1 m/s 753 mmHg 44%
05:00 +9°C° 0 mm 1 m/s 753 mmHg 45%
06:00 +9°C° 0 mm 2 m/s 754 mmHg 43%
07:00 +12°C° 0 mm 2 m/s 755 mmHg 42%
08:00 +13°C° 0 mm 2 m/s 755 mmHg 40%
09:00 +15°C° 0 mm 2 m/s 755 mmHg 36%
10:00 +18°C° 0 mm 2 m/s 755 mmHg 31%
11:00 +21°C° 0 mm 2 m/s 755 mmHg 27%
12:00 +23°C° 0 mm 2 m/s 754 mmHg 25%
13:00 +23°C° 0 mm 2 m/s 754 mmHg 24%
14:00 +24°C° 0 mm 2 m/s 753 mmHg 22%
15:00 +23°C° 0 mm 2 m/s 753 mmHg 26%
16:00 +20°C° 0 mm 2 m/s 753 mmHg 31%
17:00 +19°C° 0 mm 1 m/s 752 mmHg 35%
18:00 +18°C° 0 mm 1 m/s 753 mmHg 36%
19:00 +16°C° 0 mm 1 m/s 754 mmHg 38%
20:00 +14°C° 0 mm 1 m/s 754 mmHg 40%
21:00 +14°C° 0 mm 1 m/s 754 mmHg 41%
22:00 +13°C° 0 mm 1 m/s 755 mmHg 43%
23:00 +12°C° 0 mm 1 m/s 755 mmHg 45%
Arată mai mult

Formular de consimțământ

Meteoprog și furnizorii noștri de servicii pot stoca și accesa date personale, precum cookies, identificatori de dispozitiv sau alte tehnologii similare pe dispozitivul dumneavoastră și procesa astfel de date pentru a personaliza conținutul și reclamele, dar și pentru a oferi caracteristici de social media și pentru a analiza traficul.

  • Stocarea și/sau accesarea informațiilor pe dispozitivul dumneavoastră

    Cookies, identificatori de dispozitiv sau alte informații pot fi stocate sau accesate pe dispozitiv în scopurile indicate mai sus.

  • Reclame și conținut personalizat, evaluarea reclamelor și a conținutului, informații despre audiențe și dezvoltarea produselor

    Reclamele și conținutul pot fi personalizate pe baza unui profil. Pot fi adăugate date suplimentare pentru a personaliza mai bine reclamele și conținutul. Performanța reclamelor și conținutului poate fi măsurată. Pot fi obținute informații despre utilizatorii care au văzut reclamele și conținutul. Aceste date pot fi utilizate pentru a dezvolta sau îmbunătăți experiența utilizatorilor, sistemele și software-ul.

Dând clic pe ‘Sunt de acord’, permiteți utilizarea cookie-urilor menționate, a identificatorilor de dispozitiv, balizelor web sau altor tehnologii similare. Setările pot fi modificate din browser-ul dispozitivului dumneavoastră.

În anumite scopuri, interesele legitime pot prima asupra consimțământului. Puteți citi mai multe informații în acest sens în Politica privind Confidențialitatea Datelor și Cookie.